Weather History for North Bend, OR

Change the Weather History Date:

Saturday, July 6, 2013

  Actual Average Record
Temperature  
Mean Temperature 64 °F 58 °F  
Max Temperature 75 °F 64 °F 96 °F (1931)
Min Temperature 52 °F 52 °F 41 °F (1921)
Degree Days  
Heating Degree Days 1 7  
Month to date heating degree days 2 42  
Since 1 June heating degree days 173 309  
Since 1 July heating degree days 2 42  
Cooling Degree Days 0 0  
Month to date cooling degree days 13 0  
Year to date cooling degree days 33 0  
Since 1 June cooling degree days 29 0  
Growing Degree Days 14 (Base 50)    
Moisture  
Dew Point 57 °F    
Average Humidity 80    
Maximum Humidity 93    
Minimum Humidity 64    
Precipitation  
Precipitation 0.00 in 0.03 in 0.40 in (1948)
Month to date precipitation 0.00 0.14  
Year to date precipitation 17.49 36.26  
Sea Level Pressure  
Sea Level Pressure 29.95 in    
Wind  
Wind Speed 17 mph (NNE)    
Max Wind Speed 30 mph    
Max Gust Speed 38 mph    
Visibility 10 miles    
Events      
T = Trace of Precipitation, MM = Missing Value Source: NWS Daily Summary

Daily Weather History Graph

Daily Weather History Graph

Search for Another Location

Airport:

Trip Planner

Search our weather history database for the weather conditions in past years. The results will help you decide how hot, cold, wet, or windy it might be!

Date:

Astronomy

Jul. 06, 2013 Rise Set
Actual Time 5:43 AM PDT 8:59 PM PDT
Civil Twilight 5:08 AM PDT 9:35 PM PDT
Nautical Twilight 4:22 AM PDT 10:20 PM PDT
Astronomical Twilight 3:26 AM PDT 11:16 PM PDT
Moon 4:35 AM PDT (7/6) 7:43 PM PDT (7/6)
Length of Visible Light 16h 26m
Length of Day
15h 16m
Waning Crescent, 2% of the Moon is Illuminated
Jul 6
Waning Crescent
Jul 8
New
Jul 15
First Quarter
Jul 22
Full
Jul 29
Last Quarter

Hourly Weather History & Observations

Time (PDT) Temp. Dew Point Humidity Pressure Visibility Wind Dir Wind Speed Gust Speed Precip Events Conditions
12:15 AM 64.4 °F 60.8 °F 88% 30.00 in 10.0 mi NNE 18.4 mph 26.5 mph N/A   Clear
12:35 AM 64.4 °F 60.8 °F 88% 29.99 in 10.0 mi NNE 19.6 mph 26.5 mph N/A   Clear
12:55 AM 64.4 °F 60.8 °F 88% 29.99 in 10.0 mi NNE 16.1 mph - N/A   Clear
1:15 AM 66.2 °F 60.8 °F 83% 29.99 in 10.0 mi NNE 18.4 mph 24.2 mph N/A   Clear
1:35 AM 64.4 °F 60.8 °F 88% 29.98 in 10.0 mi NNE 16.1 mph 21.9 mph N/A   Clear
1:55 AM 66.2 °F 62.6 °F 88% 29.98 in 10.0 mi NNE 13.8 mph - N/A   Clear
2:15 AM 64.4 °F 62.6 °F 94% 29.98 in 10.0 mi NNE 12.7 mph - N/A   Clear
2:35 AM 64.4 °F 60.8 °F 88% 29.98 in 10.0 mi NE 10.4 mph - N/A   Clear
2:55 AM 64.4 °F 60.8 °F 88% 29.99 in 10.0 mi NNE 9.2 mph - N/A   Clear
3:15 AM 64.4 °F 60.8 °F 88% 29.98 in 10.0 mi NNE 11.5 mph - N/A   Clear
3:35 AM 64.4 °F 60.8 °F 88% 29.97 in 10.0 mi NNE 9.2 mph - N/A   Clear
3:55 AM 64.4 °F 60.8 °F 88% 29.97 in 10.0 mi NE 8.1 mph - N/A   Clear
4:15 AM 64.4 °F 60.8 °F 88% 29.97 in 10.0 mi NE 8.1 mph - N/A   Clear
4:35 AM 55.4 °F 51.8 °F 88% 29.97 in 10.0 mi NE 4.6 mph - N/A   Clear
4:55 AM 66.2 °F 62.6 °F 88% 29.97 in 10.0 mi Calm Calm - N/A   Clear
5:15 AM 59.0 °F 55.4 °F 88% 29.97 in 10.0 mi NNE 8.1 mph - N/A   Clear
5:35 AM 55.4 °F 53.6 °F 94% 29.97 in 7.0 mi NNE 8.1 mph - N/A   Clear
5:55 AM 60.8 °F 57.2 °F 88% 29.97 in 7.0 mi NNE 3.5 mph - N/A   Clear
6:15 AM 53.6 °F 51.8 °F 94% 29.98 in 8.0 mi Calm Calm - N/A   Clear
6:35 AM 53.6 °F 53.6 °F 100% 29.97 in 10.0 mi NE 4.6 mph - N/A   Clear
6:55 AM 55.4 °F 53.6 °F 94% 29.97 in 10.0 mi ENE 5.8 mph - N/A   Clear
7:15 AM 55.4 °F 53.6 °F 94% 29.97 in 10.0 mi ENE 4.6 mph - N/A   Clear
7:35 AM 57.2 °F 53.6 °F 88% 29.97 in 10.0 mi NE 8.1 mph - N/A   Clear
7:55 AM 60.8 °F 53.6 °F 77% 29.97 in 10.0 mi NE 11.5 mph - N/A   Clear
8:15 AM 60.8 °F 53.6 °F 77% 29.97 in 10.0 mi NE 13.8 mph - N/A   Clear
8:35 AM 62.6 °F 53.6 °F 72% 29.97 in 10.0 mi NNE 11.5 mph - N/A   Clear
8:55 AM 62.6 °F 53.6 °F 72% 29.96 in 10.0 mi NNE 13.8 mph - N/A   Clear
9:15 AM 64.4 °F 53.6 °F 68% 29.96 in 10.0 mi NNE 13.8 mph 18.4 mph N/A   Clear
9:35 AM 64.4 °F 53.6 °F 68% 29.96 in 10.0 mi North 12.7 mph - N/A   Clear
9:55 AM 64.4 °F 53.6 °F 68% 29.95 in 10.0 mi NNE 15.0 mph - N/A   Clear
10:15 AM 64.4 °F 53.6 °F 68% 29.95 in 10.0 mi NNE 15.0 mph - N/A   Clear
10:35 AM 64.4 °F 53.6 °F 68% 29.95 in 10.0 mi NNE 16.1 mph 20.7 mph N/A   Clear
10:55 AM 64.4 °F 53.6 °F 68% 29.95 in 10.0 mi North 16.1 mph 23.0 mph N/A   Clear
11:15 AM 64.4 °F 53.6 °F 68% 29.95 in 10.0 mi North 20.7 mph 24.2 mph N/A   Clear
11:35 AM 64.4 °F 53.6 °F 68% 29.95 in 10.0 mi North 20.7 mph 27.6 mph N/A   Clear
11:55 AM 64.4 °F 53.6 °F 68% 29.95 in 10.0 mi NNE 25.3 mph 29.9 mph N/A   Clear
12:15 PM 64.4 °F 53.6 °F 68% 29.94 in 10.0 mi NNE 25.3 mph 32.2 mph N/A   Clear
12:35 PM 64.4 °F 53.6 °F 68% 29.94 in 10.0 mi NNE 28.8 mph 33.4 mph N/A   Clear
12:55 PM 71.6 °F 60.8 °F 69% 29.94 in 10.0 mi NNE 25.3 mph 34.5 mph N/A   Clear
1:15 PM 66.2 °F 53.6 °F 64% 29.94 in 10.0 mi NNE 25.3 mph 32.2 mph N/A   Clear
1:35 PM 75.2 °F 62.6 °F 65% 29.93 in 10.0 mi NNE 26.5 mph 35.7 mph N/A   Clear
1:55 PM 75.2 °F 62.6 °F 65% 29.94 in 10.0 mi NNE 29.9 mph 34.5 mph N/A   Clear
2:15 PM 75.2 °F 64.4 °F 69% 29.93 in 10.0 mi NNE 28.8 mph 38.0 mph N/A   Clear
2:35 PM 71.6 °F 60.8 °F 69% 29.93 in 10.0 mi NNE 28.8 mph 39.1 mph N/A   Clear
2:55 PM 71.6 °F 60.8 °F 69% 29.93 in 10.0 mi NNE 24.2 mph 38.0 mph N/A   Clear
3:15 PM 66.2 °F 55.4 °F 68% 29.93 in 10.0 mi NNE 25.3 mph 35.7 mph N/A   Clear
3:35 PM 66.2 °F 55.4 °F 68% 29.93 in 10.0 mi NNE 26.5 mph 34.5 mph N/A   Clear
3:55 PM 66.2 °F 55.4 °F 68% 29.93 in 10.0 mi NNE 26.5 mph 35.7 mph N/A   Clear
4:15 PM 64.4 °F 55.4 °F 73% 29.92 in 10.0 mi NNE 24.2 mph 32.2 mph N/A   Clear
4:35 PM 66.2 °F 55.4 °F 68% 29.92 in 10.0 mi NNE 28.8 mph 35.7 mph N/A   Clear
4:55 PM 64.4 °F 55.4 °F 73% 29.92 in 10.0 mi NNE 28.8 mph 35.7 mph N/A   Clear
5:15 PM 64.4 °F 57.2 °F 77% 29.91 in 10.0 mi NNE 26.5 mph 35.7 mph N/A   Partly Cloudy
5:35 PM 64.4 °F 55.4 °F 73% 29.91 in 10.0 mi NNE 26.5 mph 35.7 mph N/A   Clear
5:55 PM 64.4 °F 57.2 °F 77% 29.92 in 10.0 mi NNE 25.3 mph 33.4 mph N/A   Mostly Cloudy
6:15 PM 62.6 °F 57.2 °F 82% 29.91 in 10.0 mi NNE 27.6 mph 32.2 mph N/A   Scattered Clouds
6:35 PM 62.6 °F 57.2 °F 82% 29.92 in 10.0 mi NNE 23.0 mph 31.1 mph N/A   Scattered Clouds
6:55 PM 62.6 °F 57.2 °F 82% 29.92 in 10.0 mi NNE 23.0 mph 31.1 mph N/A   Overcast
7:15 PM 62.6 °F 55.4 °F 77% 29.92 in 10.0 mi NNE 21.9 mph 28.8 mph N/A   Overcast
7:35 PM 60.8 °F 55.4 °F 82% 29.93 in 10.0 mi NNE 20.7 mph - N/A   Overcast
7:55 PM 60.8 °F 55.4 °F 82% 29.93 in 10.0 mi NNE 20.7 mph 27.6 mph N/A   Overcast
8:15 PM 60.8 °F 55.4 °F 82% 29.93 in 10.0 mi NNE 18.4 mph 25.3 mph N/A   Overcast
8:35 PM 60.8 °F 55.4 °F 82% 29.94 in 10.0 mi NNE 18.4 mph 27.6 mph N/A   Overcast
8:55 PM 60.8 °F 55.4 °F 82% 29.94 in 10.0 mi NNE 16.1 mph 25.3 mph N/A   Overcast
9:15 PM 59.0 °F 55.4 °F 88% 29.95 in 10.0 mi NNE 15.0 mph 21.9 mph N/A   Overcast
9:35 PM 59.0 °F 55.4 °F 88% 29.95 in 10.0 mi North 15.0 mph 21.9 mph N/A   Overcast
9:55 PM 59.0 °F 55.4 °F 88% 29.96 in 10.0 mi NNE 15.0 mph 20.7 mph N/A   Overcast
10:15 PM 59.0 °F 55.4 °F 88% 29.96 in 10.0 mi NNE 17.3 mph 23.0 mph N/A   Overcast
10:35 PM 59.0 °F 55.4 °F 88% 29.96 in 10.0 mi NNE 16.1 mph 19.6 mph N/A   Overcast
10:55 PM 59.0 °F 55.4 °F 88% 29.96 in 10.0 mi NNE 16.1 mph 21.9 mph N/A   Overcast
11:15 PM 59.0 °F 55.4 °F 88% 29.96 in 10.0 mi NNE 16.1 mph 25.3 mph N/A   Overcast
11:35 PM 59.0 °F 55.4 °F 88% 29.96 in 10.0 mi NNE 16.1 mph 23.0 mph N/A   Overcast
11:55 PM 59.0 °F 55.4 °F 88% 29.96 in 10.0 mi NNE 17.3 mph - N/A   Overcast